Preview of NWS' New Version of Forecast
This preview is not operational and should not be used for support decisions.
Latest weather observations around

Houston, Houston Hobby Airport (KHOU)

Using English Units (Switch to International System of Units)
Date/ Time (CDT) Wind (mph) Vis. (mi) Weather Sky Cond. Temp (°F) Rel. Humidity Wind Chill (°F) Heat Index (°F) Pressure Precip. (in)
Air Dwpt 6 hour Altimeter (inHg) Sea level (inHg) 1 hr 3 hr 6 hr
Max Min
Mar 26 14:53 NNW 7 10 Clear CLR 76 49     39%   75 30.23 30.24      
Mar 26 13:53 N 9 10 Clear CLR 74 48     40%   73 30.26 30.27      
Mar 26 12:53 N 9 10 Clear CLR 73 48     41%   72 30.29 30.3      
Mar 26 11:53   10 Mostly Clear FEW250 71 48     44%   70 30.31 30.32      
Mar 26 10:53 5 10 Mostly Clear FEW250 67 48     51%     30.31 30.32      
Mar 26 09:53 ENE 13 10 Mostly Clear FEW250 65 47     52%     30.29 30.31      
Mar 26 08:53 ENE 13 10 Mostly Clear FEW250 62 48     60%     30.27 30.29      
Mar 26 07:53 NE 9 10 Mostly Clear FEW250 59 48     67%     30.25 30.27      
Mar 26 06:53 NE 11 10 Mostly Clear FEW250 59 48     67%     30.24 30.25      
Mar 26 05:53 NE 9 10 Mostly Clear FEW250 60 48     64%     30.22 30.24      
Mar 26 04:53 NE 14 10 Mostly Clear FEW250 62 48     60%     30.2 30.22      
Mar 26 03:53 NE 15 10 Clear CLR 64 48     56%     30.18 30.2      
Mar 26 02:53 NNE 14 10 Clear CLR 65 48     54%     30.18 30.19      
Mar 26 01:53 N 9 10 Clear CLR 65 51     61%     30.18 30.19      
Mar 26 00:53 N 6 10 Mostly Clear FEW025 FEW035 67 64     90%     30.16 30.18      
Mar 25 23:53 Calm 10 Mostly Clear FEW020 FEW250 69 64     84%     30.17 30.18      
Mar 25 22:53 ENE 5 10 Partly Cloudy FEW020 FEW040 SCT250 71 65     81%   72 30.16 30.18      
Mar 25 21:53 E 8 10 Mostly Cloudy BKN060 BKN250 73 67     81%   74 30.14 30.15      
Mar 25 20:53   10 Partly Cloudy FEW045 SCT090 SCT250 77 52     42%   76 30.1 30.11      
Mar 25 19:53   10 Mostly Cloudy SCT050 SCT090 BKN250 79 59     50%   79 30.07 30.09      
Mar 25 18:53 N 11 10 Partly Cloudy SCT055 82 62     51%   83 30.05 30.06      
Mar 25 17:53 WSW 8 10 Partly Cloudy SCT050 85 61     45%   85 30.02 30.04      
Mar 25 16:53 WSW 8 10 Partly Cloudy SCT040 84 63     49%   85 30.03 30.04      
Mar 25 15:53 NW 5 10 Mostly Cloudy BKN039 82 64     55%   84 30.04 30.05      
Mar 25 14:53 SW 7 10 Mostly Cloudy BKN038 81 65     58%   83 30.07 30.08      
Mar 25 13:53 W 8 10 Mostly Cloudy BKN039 BKN250 77 64     64%   77 30.1 30.11      
Mar 25 12:53 WNW 8 10 Mostly Cloudy SCT026 BKN032 BKN250 76 65     69%   76 30.12 30.13      
Mar 25 11:53 WSW 9 10 Mostly Cloudy FEW019 SCT029 BKN034 BKN250 75 66     74%   76 30.12 30.13      
Mar 25 10:53 NW 7 10 Mostly Cloudy SCT029 BKN050 BKN250 74 66     76%   75 30.14 30.15      
Mar 25 09:53 Calm 8 Cloudy BKN026 OVC050 74 66     76%   75 30.13 30.14      
Mar 25 08:53 Calm 8 Cloudy BKN023 OVC027 70 66     87%     30.1 30.11      
Mar 25 08:37 Calm 8 Cloudy SCT012 OVC021 70 65     84%     30.1        
Mar 25 08:18 Calm 8 Cloudy BKN012 OVC019 69 66     90%     30.09        
Mar 25 08:07 SW 5 8 Cloudy FEW009 OVC016 69 65     87%     30.08        
Mar 25 07:53 SSW 6 8 Cloudy OVC014 69 65     87%     30.08 30.09      
Mar 25 07:16 WSW 3 9 Clear   69 65     87%     30.07        
Mar 25 06:53 SW 7 7 Clear   69 65     87%     30.05 30.07      
Mar 25 06:17 SSW 9 7 Mostly Cloudy BKN008 BKN012 68 65     90%     30.04        
Mar 25 05:53 SW 5 7 Cloudy BKN004 OVC009 68 66     93%     30.04 30.05      
Mar 25 04:53 SW 8 6 Fog/Mist OVC004 68 66     93%     30.03 30.04      
Mar 25 04:05 SSW 7 5 Fog/Mist OVC004 67 65     93%     30.03        
Mar 25 03:53 SSW 7 5 Fog/Mist BKN005 BKN010 66 65     96%     30.03 30.04      
Mar 25 03:31 SW 6 6 Fog/Mist BKN006 OVC010 67 65     93%     30.04        
Mar 25 03:08 SSW 7 6 Fog/Mist BKN011 OVC018 67 65     93%     30.05        
Mar 25 02:53 SSW 5 6 Fog/Mist BKN016 BKN044 67 65     93%     30.06 30.07      
Mar 25 01:53 S 7 8 Cloudy FEW012 OVC042 67 65     93%     30.07 30.08      
Mar 25 00:53 SSE 7 8 Mostly Cloudy FEW012 SCT046 BKN250 67 64     90%     30.07 30.09      
Mar 24 23:53 S 9 9 Mostly Cloudy FEW012 SCT048 BKN250 68 65     90%     30.07 30.09      
Mar 24 22:53 S 8 9 Mostly Cloudy FEW012 BKN050 BKN250 68 65     90%     30.07 30.09      
Mar 24 21:53 S 8 9 Mostly Cloudy FEW015 SCT050 BKN250 68 65     90%     30.06 30.07      
Mar 24 20:53 S 10 10 Mostly Cloudy FEW055 BKN250 69 65     87%     30.04 30.05      
Mar 24 19:53 SSE 9 10 Mostly Cloudy FEW015 BKN055 BKN250 71 65     81%   72 30.03 30.04      
Mar 24 18:53 S 13 10 Mostly Cloudy FEW018 SCT030 BKN060 73 65     76%   74 30.04 30.05      
Mar 24 17:53 S 14 10 Cloudy FEW018 SCT030 OVC055 74 65     74%   74 30.04 30.05      
Mar 24 17:21 S 13 10 Cloudy SCT023 BKN030 OVC055 75 65     71%   76 30.04        
Mar 24 16:53 S 13 10 Cloudy BKN023 BKN030 OVC055 76 65     69%   76 30.05 30.06      
Mar 24 16:35 SSE 14 10 Mostly Cloudy BKN022 BKN030 BKN055 75 65     71%   76 30.05        
Mar 24 15:53 SSE 11 10 Cloudy SCT024 BKN033 OVC060 76 65     69%   76 30.06 30.07      
Mar 24 14:53 S 11 10 Mostly Cloudy SCT024 BKN036 BKN060 BKN250 77 64     64%   77 30.07 30.08      
Mar 24 13:53 S 11 10 Mostly Cloudy FEW022 SCT038 BKN055 BKN250 76 64     67%   76 30.09 30.1      
Mar 24 12:53 S 11 10 Mostly Cloudy SCT019 BKN046 BKN055 BKN250 76 64     67%   76 30.11 30.12 0   0
Mar 24 11:53 S 11 10 Mostly Cloudy SCT020 SCT034 BKN046 BKN250 74 64     71%   74 30.13 30.14      
Mar 24 10:53 S 10 10 Cloudy SCT018 BKN024 OVC032 73 64     73%   73 30.14 30.15      
Mar 24 09:53 SSE 14 10 Mostly Cloudy BKN020 BKN070 BKN250 71 64     79%   72 30.12 30.14      
Mar 24 09:49 S 9 10 Mostly Cloudy BKN020 BKN070 BKN250 72 64     78%   72 30.12        
Mar 24 08:53 SE 9 7 Partly Cloudy FEW030 SCT070 SCT250 67 63     87%     30.11 30.12      
Mar 24 07:53 ESE 5 5 Fog/Mist BKN022 BKN070 BKN250 64 61     90%     30.11 30.13      
Mar 24 06:53 E 5 8 Fog BKN022 BKN065 BKN250 63 60     90%     30.1 30.11      
Mar 24 06:38 ESE 3 8 Fog BKN022 BKN065 BKN250 62 60     93%     30.1        
Mar 24 05:53 ESE 5 9 Fog FEW022 SCT070 BKN250 60 58     93%     30.09 30.1      
Mar 24 04:53 E 5 9 Fog FEW035 SCT070 SCT250 59 57     93%     30.08 30.1      
Mar 24 03:53 E 3 9 Fog FEW070 SCT250 60 58     93%     30.08 30.09      
Mar 24 02:53 ESE 3 10 Fog SCT250 62 59     90%     30.09 30.1      
Mar 24 01:53 ESE 5 10 Mostly Cloudy FEW075 BKN250 62 59     90%     30.09 30.11      
Mar 24 00:53 SE 7 10 Cloudy FEW035 SCT075 OVC220 62 58     86%     30.1 30.11      
Mar 23 23:53 Calm 10 Mostly Cloudy FEW080 BKN250 63 58     84%     30.12 30.14      
Mar 23 22:53 SE 8 10 Partly Cloudy SCT250 64 59     84%     30.1 30.11      
Mar 23 21:53 SE 9 10 Mostly Cloudy FEW028 BKN250 66 58     75%     30.11 30.12      
Mar 23 20:53 SE 11 10 Mostly Cloudy FEW030 BKN250 66 57     73%     30.1 30.11      
Mar 23 19:53 SSE 9 10 Mostly Cloudy FEW018 SCT030 BKN075 BKN250 68 57     68%     30.11 30.12      
Mar 23 18:53 SSE 14 10 Mostly Cloudy FEW018 SCT030 BKN075 BKN250 70 57     63%     30.11 30.12      
Mar 23 17:53 SE 16 10 Mostly Cloudy FEW018 SCT030 BKN085 BKN250 71 57     61%   71 30.1 30.11      
Mar 23 16:53 SE 15 10 Mostly Cloudy BKN035 BKN080 BKN250 72 57     59%   72 30.1 30.11      
Mar 23 15:53 SE 17 10 Mostly Cloudy BKN033 BKN080 BKN250 72 57     59%   72 30.11 30.12      
Mar 23 14:53 S 15 10 Mostly Cloudy BKN033 BKN080 BKN250 72 56     57%   72 30.12 30.13      
May 14 04:53 ESE 3 10 Clear   72 72     100%   74 29.96 29.97      
May 12 17:53 SE 11 10 Partly Cloudy SCT040 86 71     61%   92 29.95 29.96      
May 12 04:37 SSE 5 10 Partly Cloudy SCT016 SCT040 74 73     97%   76 29.97        
May 12 01:53 6 10 Partly Cloudy SCT030 SCT250 75 73     94%   77 29.98 29.99      
May 11 16:53 SE 16 10 Partly Cloudy SCT042 84 69     61%   88 29.94 29.95      
May 11 07:53 SSE 6 10 Mostly Clear FEW020 74 72     94%   75 30 30.01      
Jun 12 04:53 ESE 5 10 Mostly Clear FEW050 78 76     93%   80 29.9 29.91      
Jun 11 21:53 ESE 6 10 Clear   81 75     82%   87 29.91 29.92      
Jun 11 12:53 6 10 Mostly Cloudy SCT031 BKN050 BKN070 86 74     67%   94 29.93 29.94      
Jun 08 18:53 NE 8 10 Clear   86 60     42%   86 29.85 29.87      
Jun 08 03:53 ENE 5 10 Clear CLR 74 61     64%   74 29.91 29.92      
Jun 05 22:53 Calm 10 Mostly Cloudy SCT024 BKN100 BKN250 73 71     94%   74 29.74 29.75 0